Location: Vale
(35.4830°N, 81.3830°W)
Time: 08:14:25
(UTC-04:00)

SR - All Passes

Search period start: 01 October 2014 00:00
Search period end: 11 October 2014 00:00
Orbit: 575 x 890 km, 66.7° (Epoch: 01 October)

Date Brightness Start Highest point End Pass type
(mag) Time Alt. Az. Time Alt. Az. Time Alt. Az.
01 Oct - 05:37:02 10° NNW 05:42:26 48° ENE 05:47:21 10° SE visible
01 Oct - 07:20:23 10° WNW 07:24:06 19° WSW 07:27:37 10° SSW daylight
01 Oct - 20:03:22 10° SSW 20:08:59 64° ESE 20:14:53 10° NNE visible
01 Oct - 21:47:25 10° W 21:51:42 21° NW 21:56:05 10° N visible
02 Oct - 04:49:14 10° N 04:53:51 25° NE 04:58:08 10° ESE visible
02 Oct - 06:31:06 10° NW 06:36:11 40° WSW 06:40:51 10° S visible
02 Oct - 19:15:55 10° S 19:20:55 32° ESE 19:26:07 10° NE daylight
02 Oct - 20:57:44 10° WSW 21:03:01 36° NW 21:08:30 10° N visible
03 Oct - 04:02:05 10° NNE 04:05:02 14° NE 04:07:52 10° ENE visible
03 Oct - 05:42:30 10° NNW 05:48:04 84° WSW 05:53:05 10° SSE visible
03 Oct - 18:29:38 10° SE 18:33:00 16° ESE 18:36:28 10° ENE daylight
03 Oct - 20:08:50 10° SW 20:14:33 67° WNW 20:20:31 10° NNE visible
03 Oct - 21:55:55 10° WNW 21:57:54 12° NW 21:59:54 10° NNW visible
04 Oct - 04:54:20 10° NNW 04:59:43 48° ENE 05:04:37 10° SE visible
04 Oct - 06:37:44 10° WNW 06:41:21 19° WSW 06:44:47 10° SSW visible
04 Oct - 19:20:37 10° SSW 19:26:16 65° ESE 19:32:11 10° NNE visible
04 Oct - 21:04:45 10° W 21:09:00 20° NW 21:13:21 10° N visible
05 Oct - 04:06:31 10° N 04:11:07 26° NE 04:15:24 10° ESE visible
05 Oct - 05:48:25 10° NW 05:53:26 39° WSW 05:58:03 10° S visible
05 Oct - 18:33:08 10° S 18:38:11 33° ESE 18:43:25 10° NE daylight
05 Oct - 20:15:02 10° WSW 20:20:19 36° NW 20:25:46 10° N visible
06 Oct - 03:19:21 10° NNE 03:22:19 14° NE 03:25:10 10° ENE night (unlit)
06 Oct - 04:59:48 10° NNW 05:05:19 82° WSW 05:10:18 10° SSE visible
06 Oct - 17:46:47 10° SE 17:50:16 17° ESE 17:53:49 10° ENE daylight
06 Oct - 19:26:06 10° SW 19:31:50 66° WNW 19:37:47 10° NNE visible
06 Oct - 21:13:19 10° WNW 21:15:12 11° NW 21:17:05 10° NNW visible
07 Oct - 04:11:36 10° NNW 04:16:58 49° ENE 04:21:51 10° SE night (unlit)
07 Oct - 05:55:05 10° WNW 05:58:36 18° WSW 06:01:55 10° SW visible
07 Oct - 18:37:51 10° SSW 18:43:32 67° ESE 18:49:28 10° NNE daylight
07 Oct - 20:22:03 10° W 20:26:17 20° NW 20:30:35 10° N visible
08 Oct - 03:23:47 10° N 03:28:23 26° NE 03:32:39 10° ESE night (unlit)
08 Oct - 05:05:42 10° NW 05:10:41 38° WSW 05:15:14 10° S night (unlit)
08 Oct - 17:50:20 10° S 17:55:26 34° ESE 18:00:43 10° NE daylight
08 Oct - 19:32:18 10° WSW 19:37:35 35° NW 19:43:01 10° N visible
09 Oct - 02:36:36 10° NNE 02:39:35 15° NE 02:42:26 10° ENE night (unlit)
09 Oct - 04:17:04 10° NNW 04:22:33 81° WSW 04:27:30 10° SSE night (unlit)
09 Oct - 17:03:55 10° SE 17:07:30 17° ESE 17:11:09 10° ENE daylight
09 Oct - 18:43:21 10° SW 18:49:05 65° WNW 18:55:02 10° NNE daylight
09 Oct - 20:30:43 10° WNW 20:32:28 11° NW 20:34:14 10° NNW visible
10 Oct - 03:28:52 10° NNW 03:34:12 50° ENE 03:39:03 10° SE night (unlit)
10 Oct - 05:12:25 10° WNW 05:15:48 17° WSW 05:19:02 10° SW night (unlit)
10 Oct - 17:55:04 10° SSW 18:00:47 68° ESE 18:06:43 10° NNE daylight
10 Oct - 19:39:21 10° W 19:43:32 20° NW 19:47:48 10° N visible
